This demonstration page uses our WeatherBlox Daily Observations layout. Learn more.

Left ArrowRight Arrow

40.92501, -98.34201

Hourly Observations for June 24, 2020

Temp ( °F °C ) Dew Point ( °F °C ) Humidity (%) Winds ( mph kmh ) Pressure ( in mb ) Visibility ( mi km ) Precip ( " mm )
12:53 am 00:53 Clear 59 15 52 11.1 78 78 S 3 6 30.01 1016 10 16 0.00 0.00
1:53 am 01:53 Clear 60 15.6 52 11.1 75 75 Calm 30.00 1016 10 16 0.00 0.00
2:53 am 02:53 Clear 61 16.1 52 11.1 72 72 S 6 9 30.00 1016 10 16 0.00 0.00
3:53 am 03:53 Clear 59 15 51 10.6 75 75 S 7 11 30.00 1016 10 16 0.00 0.00
4:53 am 04:53 Clear 59 15 51 10.6 75 75 SSW 3 6 29.99 1016 10 16 0.00 0.00
5:53 am 05:53 Mostly Cloudy 58 14.4 51 10.6 78 78 Calm 29.99 1016 10 16 0.00 0.00
6:53 am 06:53 Cloudy 62 16.7 53 11.7 73 73 Calm 29.98 1015 10 16 0.00 0.00
8:53 am 08:53 Mostly Sunny 70 21 54 12 57 57 undefined N/A 29.94 1014 10 16 0.00 0.00
9:53 am 09:53 Sunny 74 23.3 52 11.1 46 46 SSE 6 9 29.97 1015 10 16 0.00 0.00
10:53 am 10:53 Sunny 77 25 52 11.1 42 42 VRB 5 7 29.97 1015 10 16 0.00 0.00
11:53 am 11:53 Sunny 81 27.2 55 12.8 41 41 ESE 9 15 29.95 1014 10 16 0.00 0.00
12:53 pm 12:53 Sunny 82 27.8 55 12.8 40 40 SSE 9 15 29.95 1014 10 16 0.00 0.00
1:53 pm 13:53 Sunny 83 28.3 56 13.3 40 40 VRB 5 7 29.93 1013 10 16 0.00 0.00
2:53 pm 14:53 Sunny 86 30 56 13.3 36 36 SSE 8 13 29.91 1013 10 16 0.00 0.00
3:53 pm 15:53 Sunny 87 30.6 57 13.9 36 36 ESE 12 19 29.90 1013 10 16 0.00 0.00
4:53 pm 16:53 Sunny 87 30.6 56 13.3 35 35 E 9 15 29.89 1012 10 16 0.00 0.00
5:53 pm 17:53 Sunny 85 29.4 57 13.9 39 39 SE 9 15 29.88 1012 10 16 0.00 0.00
6:53 pm 18:53 Sunny 84 28.9 57 13.9 40 40 ESE 12 19 29.87 1012 10 16 0.00 0.00
7:53 pm 19:53 Sunny 82 27.8 57 13.9 42 42 SE 9 15 29.86 1011 10 16 0.00 0.00
8:53 pm 20:53 Sunny 78 25.6 58 14.4 50 50 SE 8 13 29.87 1012 10 16 0.00 0.00
9:53 pm 21:53 Clear 74 23.3 58 14.4 57 57 SE 7 11 29.87 1012 10 16 0.00 0.00
10:53 pm 22:53 Clear 74 23.3 57 13.9 56 56 SE 12 19 29.89 1012 10 16 0.00 0.00
11:53 pm 23:53 Clear 72 22.2 57 13.9 59 59 SE 9 15 29.90 1013 10 16 0.00 0.00

Powered by AerisWeather